Change the Weather History Date:

Thursday, December 13, 2012

  Actual Average Record
Temperature  
Mean Temperature 64 °F -  
Max Temperature 73 °F - - ()
Min Temperature 54 °F - - ()
Degree Days  
Heating Degree Days 2    
Growing Degree Days 14 (Base 50)    
Moisture  
Dew Point 52 °F    
Average Humidity 65    
Maximum Humidity 82    
Minimum Humidity 33    
Precipitation  
Precipitation 0.00 in - - ()
Sea Level Pressure  
Sea Level Pressure 29.95 in    
Wind  
Wind Speed 6 mph ()    
Max Wind Speed 10 mph    
Max Gust Speed -    
Visibility 1.5 miles    
Events      
T = Trace of Precipitation, MM = Missing Value Source: Averaged Metar Reports

Daily Weather History Graph

Daily Weather History Graph

Search for Another Location

Airport or City:

Trip Planner

Search our weather history database for the weather conditions in past years. The results will help you decide how hot, cold, wet, or windy it might be!

Date:

Astronomy

Dec. 13, 2012 Rise Set
Actual Time 7:06 AM IST 5:35 PM IST
Civil Twilight 6:41 AM IST 6:00 PM IST
Nautical Twilight 6:12 AM IST 6:29 PM IST
Astronomical Twilight 5:44 AM IST 6:58 PM IST
Moon 6:48 AM IST (12/13) 5:45 PM IST (12/13)
Length of Visible Light 11h 19m
Length of Day
10h 28m
Waning Crescent, 0% of the Moon is Illuminated
Dec 13
Waning Crescent
Dec 13
New
Dec 20
First Quarter
Dec 28
Full
Jan 5
Last Quarter

Hourly Weather History & Observations

Time (IST) Temp. Dew Point Humidity Pressure Visibility Wind Dir Wind Speed Gust Speed Precip Events Conditions
12:00 AM 60.8 °F 51.8 °F 72% 29.98 in 1.2 mi East 6.9 mph - N/A   Smoke
1:00 AM 60.8 °F 51.8 °F 72% 29.95 in 1.2 mi East 5.8 mph - N/A   Smoke
2:00 AM 59.0 °F 51.8 °F 77% 29.95 in 1.2 mi East 4.6 mph - N/A   Smoke
2:30 AM 58 °F 52 °F 75% 29.95 in 1 mi 4.6 mph - -   Smoke
3:00 AM 57.2 °F 51.8 °F 82% 29.95 in 1.2 mi East 4.6 mph - N/A   Smoke
4:00 AM 57.2 °F 51.8 °F 82% 29.95 in 1.2 mi East 4.6 mph - N/A   Smoke
5:00 AM 57.2 °F 50.0 °F 77% 29.95 in 1.2 mi East 5.8 mph - N/A   Smoke
5:30 AM 57 °F 50 °F 70% 29.94 in 1 mi East 4.6 mph - -   Smoke
6:00 AM 55.4 °F 50.0 °F 82% 29.95 in 1.2 mi East 4.6 mph - N/A   Smoke
6:30 AM 57.2 °F 50.0 °F 77% 29.95 in 1.2 mi East 5.8 mph - N/A   Smoke
7:00 AM 55.4 °F 50.0 °F 82% 29.98 in 1.0 mi East 5.8 mph - N/A   Smoke
8:00 AM 59.0 °F 51.8 °F 77% 29.98 in 1.0 mi East 6.9 mph - N/A   Smoke
8:30 AM 60 °F 47 °F 52% 29.97 in 1 mi East 5.8 mph - -   Smoke
8:30 AM 60.8 °F 51.8 °F 72% 30.01 in 1.2 mi East 6.9 mph - N/A   Smoke
9:00 AM 62.6 °F 51.8 °F 68% 30.01 in 1.6 mi East 8.1 mph - N/A   Smoke
10:00 AM 66.2 °F 51.8 °F 60% 30.04 in 1.6 mi SE 6.9 mph - N/A   Smoke
11:00 AM 68.0 °F 51.8 °F 56% 30.01 in 1.6 mi SSE 8.1 mph - N/A   Smoke
11:30 AM 70 °F 47 °F 33% 29.96 in 1 mi South 6.9 mph - -   Partly Cloudy
12:00 PM 69.8 °F 51.8 °F 53% 29.98 in 1.9 mi SSE 8.1 mph - N/A   Haze
1:00 PM 69.8 °F 53.6 °F 56% 29.95 in 2.2 mi SSE 9.2 mph - N/A   Haze
2:00 PM 71.6 °F 51.8 °F 50% 29.95 in 2.5 mi South 10.4 mph - N/A   Haze
2:30 PM 72 °F 52 °F 39% 29.86 in 2 mi SE 9.2 mph - -   Haze
3:00 PM 73.4 °F 53.6 °F 50% 29.89 in 2.5 mi Variable 9.2 mph - N/A   Haze
4:00 PM 71.6 °F 51.8 °F 50% 29.89 in 2.5 mi SE 6.9 mph - N/A   Haze
5:00 PM 71.6 °F 51.8 °F 50% 29.89 in 2.5 mi SE 4.6 mph - N/A   Haze
7:00 PM 64.4 °F 53.6 °F 68% 29.89 in 1.6 mi East 5.8 mph - N/A   Haze
8:00 PM 62.6 °F 53.6 °F 72% 29.92 in 1.6 mi East 5.8 mph - N/A   Haze
8:30 PM 64 °F 54 °F 63% 29.88 in 1 mi East 4.6 mph - -   Haze
9:00 PM 60.8 °F 51.8 °F 72% 29.95 in 1.6 mi East 5.8 mph - N/A   Haze
10:00 PM 62.6 °F 51.8 °F 68% 29.95 in 1.6 mi East 5.8 mph - N/A   Haze
11:00 PM 60.8 °F 51.8 °F 72% 29.95 in 1.6 mi East 5.8 mph - N/A   Haze
11:30 PM 61 °F 53 °F 66% 29.91 in 1 mi East 2.3 mph - -   Haze